| time (UTC) | temp C | wind direction | speed KPH | gust KPH | rain 1hr cm | rain 24hr cm | rain mn cm | humidity % | barometer mb |
| 20260506043034 | 14 | 0 | 0.0 | 4.8 | 0.00 | 0.05 | 0.05 | 78 | 1018.1 |
| 20260506042515 | 14 | 225 | 0.0 | 3.2 | 0.00 | 0.05 | 0.05 | 78 | 1018.0 |
| 20260506042022 | 14 | 201 | 0.0 | 4.8 | 0.00 | 0.05 | 0.05 | 78 | 1017.9 |
| 20260506041542 | 14 | 0 | 0.0 | 6.4 | 0.00 | 0.05 | 0.05 | 78 | 1017.9 |
| 20260506041017 | 14 | 222 | 0.0 | 6.4 | 0.00 | 0.05 | 0.05 | 77 | 1017.9 |
| 20260506040522 | 14 | 0 | 0.0 | 6.4 | 0.00 | 0.05 | 0.05 | 77 | 1017.7 |
| 20260506040031 | 14 | 0 | 0.0 | 1.6 | 0.00 | 0.05 | 0.05 | 77 | 1017.6 |
| 20260506035513 | 14 | 0 | 0.0 | 8.0 | 0.00 | 0.05 | 0.05 | 77 | 1017.7 |
| 20260506035016 | 14 | 219 | 0.0 | 8.0 | 0.00 | 0.05 | 0.05 | 78 | 1017.6 |
| 20260506034531 | 14 | 201 | 1.6 | 8.0 | 0.00 | 0.05 | 0.05 | 77 | 1017.5 |
| 20260506034014 | 14 | 225 | 0.0 | 3.2 | 0.00 | 0.05 | 0.05 | 77 | 1017.5 |
| 20260506033515 | 14 | 0 | 0.0 | 3.2 | 0.00 | 0.05 | 0.05 | 77 | 1017.4 |
| 20260506033035 | 14 | 69 | 0.0 | 3.2 | 0.00 | 0.05 | 0.05 | 77 | 1017.2 |
| 20260506032518 | 14 | 0 | 0.0 | 3.2 | 0.00 | 0.05 | 0.05 | 77 | 1017.2 |
| 20260506032014 | 15 | 125 | 0.0 | 4.8 | 0.00 | 0.05 | 0.05 | 77 | 1017.3 |
| 20260506031532 | 15 | 0 | 0.0 | 4.8 | 0.00 | 0.05 | 0.05 | 76 | 1017.1 |
| 20260506031103 | 15 | 48 | 0.0 | 4.8 | 0.00 | 0.05 | 0.05 | 75 | 1017.1 |
| 20260506030517 | 15 | 131 | 0.0 | 4.8 | 0.00 | 0.05 | 0.05 | 76 | 1017.1 |
| 20260506030034 | 15 | 0 | 0.0 | 3.2 | 0.00 | 0.05 | 0.05 | 77 | 1017.0 |
| 20260506025515 | 15 | 136 | 0.0 | 3.2 | 0.00 | 0.05 | 0.05 | 76 | 1017.0 |
| 20260506025015 | 15 | 198 | 0.0 | 3.2 | 0.00 | 0.05 | 0.05 | 76 | 1016.9 |
| 20260506024535 | 15 | 0 | 0.0 | 3.2 | 0.00 | 0.05 | 0.05 | 76 | 1016.9 |
| 20260506024014 | 15 | 303 | 0.0 | 8.0 | 0.00 | 0.05 | 0.05 | 76 | 1016.8 |
| 20260506023516 | 15 | 0 | 0.0 | 9.7 | 0.00 | 0.05 | 0.05 | 76 | 1016.7 |
| 20260506023033 | 15 | 0 | 0.0 | 9.7 | 0.00 | 0.05 | 0.05 | 75 | 1016.5 |
| 20260506022517 | 15 | 0 | 0.0 | 6.4 | 0.00 | 0.05 | 0.05 | 75 | 1016.5 |
| 20260506022014 | 16 | 224 | 0.0 | 4.8 | 0.00 | 0.05 | 0.05 | 74 | 1016.5 |
| 20260506021530 | 16 | 0 | 0.0 | 3.2 | 0.00 | 0.05 | 0.05 | 74 | 1016.5 |
| 20260506021016 | 16 | 0 | 0.0 | 3.2 | 0.00 | 0.05 | 0.05 | 73 | 1016.5 |
| 20260506020515 | 16 | 202 | 0.0 | 3.2 | 0.00 | 0.05 | 0.05 | 72 | 1016.6 |
| 20260506020032 | 16 | 0 | 0.0 | 3.2 | 0.00 | 0.05 | 0.05 | 72 | 1016.5 |
| 20260506015515 | 16 | 0 | 0.0 | 4.8 | 0.00 | 0.05 | 0.05 | 72 | 1016.5 |
| 20260506015017 | 16 | 0 | 0.0 | 4.8 | 0.00 | 0.05 | 0.05 | 72 | 1016.5 |
| 20260506014544 | 16 | 0 | 0.0 | 4.8 | 0.00 | 0.05 | 0.05 | 72 | 1016.5 |
| 20260506014013 | 16 | 0 | 0.0 | 4.8 | 0.00 | 0.05 | 0.05 | 71 | 1016.5 |
| 20260506013513 | 16 | 0 | 0.0 | 1.6 | 0.00 | 0.05 | 0.05 | 71 | 1016.6 |
| 20260506013032 | 16 | 0 | 0.0 | 1.6 | 0.00 | 0.05 | 0.05 | 72 | 1016.5 |
| 20260506012513 | 16 | 211 | 0.0 | 4.8 | 0.00 | 0.05 | 0.05 | 71 | 1016.6 |
| 20260506012014 | 16 | 0 | 0.0 | 4.8 | 0.00 | 0.05 | 0.05 | 71 | 1016.5 |
| 20260506011534 | 16 | 0 | 0.0 | 4.8 | 0.00 | 0.05 | 0.05 | 71 | 1016.4 |
| 20260506011015 | 16 | 173 | 0.0 | 6.4 | 0.00 | 0.05 | 0.05 | 71 | 1016.4 |
| 20260506010513 | 16 | 178 | 0.0 | 6.4 | 0.00 | 0.05 | 0.05 | 71 | 1016.5 |
| 20260506010031 | 16 | 226 | 0.0 | 4.8 | 0.00 | 0.05 | 0.05 | 70 | 1016.4 |
| 20260506005513 | 16 | 53 | 0.0 | 4.8 | 0.00 | 0.05 | 0.05 | 71 | 1016.4 |
| 20260506005017 | 16 | 89 | 0.0 | 3.2 | 0.00 | 0.05 | 0.05 | 70 | 1016.4 |
| 20260506004540 | 16 | 125 | 0.0 | 9.7 | 0.00 | 0.05 | 0.05 | 71 | 1016.4 |
| 20260506004016 | 16 | 0 | 0.0 | 11.3 | 0.00 | 0.05 | 0.05 | 70 | 1016.4 |
| 20260506003517 | 16 | 201 | 3.2 | 11.3 | 0.00 | 0.05 | 0.05 | 70 | 1016.3 |
| 20260506003034 | 16 | 46 | 1.6 | 9.7 | 0.00 | 0.05 | 0.05 | 69 | 1016.3 |
| 20260506002513 | 17 | 311 | 0.0 | 4.8 | 0.00 | 0.05 | 0.05 | 70 | 1016.2 |
| 20260506002015 | 16 | 0 | 0.0 | 11.3 | 0.00 | 0.05 | 0.05 | 70 | 1016.2 |
| 20260506001534 | 16 | 0 | 0.0 | 11.3 | 0.00 | 0.05 | 0.05 | 71 | 1016.1 |
| 20260506001015 | 16 | 0 | 0.0 | 6.4 | 0.00 | 0.05 | 0.05 | 70 | 1016.1 |
| 20260506000514 | 16 | 0 | 1.6 | 6.4 | 0.00 | 0.05 | 0.05 | 71 | 1016.1 |
| 20260506000040 | 16 | 47 | 1.6 | 6.4 | 0.00 | 0.05 | 0.05 | 70 | 1016.0 |
| 20260505235515 | 17 | 212 | 0.0 | 6.4 | 0.00 | 0.05 | 0.05 | 70 | 1016.0 |
| 20260505235013 | 17 | 0 | 0.0 | 8.0 | 0.00 | 0.05 | 0.05 | 71 | 1016.1 |
| 20260505234536 | 16 | 28 | 1.6 | 8.0 | 0.00 | 0.05 | 0.05 | 71 | 1016.1 |
| 20260505234014 | 17 | 238 | 1.6 | 8.0 | 0.00 | 0.05 | 0.05 | 70 | 1016.1 |
| 20260505233516 | 17 | 55 | 1.6 | 8.0 | 0.00 | 0.05 | 0.05 | 71 | 1016.2 |
| 20260505233033 | 17 | 80 | 1.6 | 8.0 | 0.00 | 0.05 | 0.05 | 70 | 1016.3 |
| 20260505232514 | 17 | 0 | 0.0 | 8.0 | 0.00 | 0.05 | 0.05 | 70 | 1016.2 |
| 20260505232015 | 17 | 207 | 1.6 | 11.3 | 0.00 | 0.05 | 0.05 | 70 | 1016.3 |
| 20260505231531 | 17 | 119 | 1.6 | 11.3 | 0.00 | 0.05 | 0.05 | 71 | 1016.3 |
| 20260505231019 | 17 | 221 | 1.6 | 8.0 | 0.00 | 0.05 | 0.05 | 71 | 1016.3 |
| 20260505230516 | 17 | 136 | 3.2 | 8.0 | 0.00 | 0.05 | 0.05 | 70 | 1016.2 |
| 20260505230037 | 17 | 221 | 0.0 | 6.4 | 0.00 | 0.05 | 0.05 | 70 | 1016.3 |
| 20260505225513 | 17 | 215 | 0.0 | 11.3 | 0.00 | 0.05 | 0.05 | 70 | 1016.2 |
| 20260505225013 | 17 | 237 | 0.0 | 11.3 | 0.00 | 0.05 | 0.05 | 70 | 1016.2 |
| 20260505224539 | 17 | 0 | 1.6 | 11.3 | 0.00 | 0.05 | 0.05 | 70 | 1016.2 |
| 20260505224015 | 17 | 211 | 1.6 | 6.4 | 0.00 | 0.05 | 0.05 | 69 | 1016.2 |
| 20260505223517 | 17 | 227 | 1.6 | 6.4 | 0.00 | 0.05 | 0.05 | 70 | 1016.3 |
| 20260505223041 | 17 | 0 | 0.0 | 6.4 | 0.00 | 0.05 | 0.05 | 70 | 1016.3 |
| 20260505222513 | 17 | 234 | 0.0 | 6.4 | 0.00 | 0.05 | 0.05 | 70 | 1016.3 |
| 20260505222013 | 17 | 227 | 0.0 | 6.4 | 0.00 | 0.05 | 0.05 | 69 | 1016.4 |
| 20260505221532 | 17 | 213 | 1.6 | 4.8 | 0.00 | 0.05 | 0.05 | 68 | 1016.4 |
| 20260505221015 | 17 | 183 | 0.0 | 6.4 | 0.00 | 0.05 | 0.05 | 67 | 1016.4 |
| 20260505220514 | 17 | 0 | 0.0 | 6.4 | 0.00 | 0.05 | 0.05 | 68 | 1016.4 |
| 20260505220039 | 17 | 222 | 0.0 | 6.4 | 0.00 | 0.05 | 0.05 | 68 | 1016.3 |
| 20260505215516 | 17 | 0 | 0.0 | 1.6 | 0.00 | 0.05 | 0.05 | 67 | 1016.3 |
| 20260505215014 | 17 | 219 | 0.0 | 6.4 | 0.00 | 0.05 | 0.05 | 67 | 1016.4 |
| 20260505214549 | 17 | 0 | 0.0 | 6.4 | 0.00 | 0.05 | 0.05 | 69 | 1016.5 |
| 20260505214015 | 17 | 225 | 1.6 | 6.4 | 0.00 | 0.05 | 0.05 | 68 | 1016.5 |
| 20260505213514 | 17 | 85 | 0.0 | 3.2 | 0.00 | 0.05 | 0.05 | 68 | 1016.6 |
| 20260505213050 | 17 | 0 | 0.0 | 4.8 | 0.00 | 0.05 | 0.05 | 69 | 1016.6 |
| 20260505212514 | 17 | 0 | 0.0 | 4.8 | 0.00 | 0.05 | 0.05 | 69 | 1016.6 |
| 20260505212016 | 17 | 0 | 0.0 | 4.8 | 0.00 | 0.05 | 0.05 | 69 | 1016.8 |
| 20260505211532 | 17 | 0 | 0.0 | 3.2 | 0.00 | 0.05 | 0.05 | 69 | 1016.8 |
| 20260505211014 | 17 | 215 | 0.0 | 4.8 | 0.00 | 0.05 | 0.05 | 70 | 1016.7 |
| 20260505210514 | 17 | 220 | 0.0 | 6.4 | 0.00 | 0.05 | 0.05 | 69 | 1016.8 |
| 20260505210032 | 16 | 251 | 0.0 | 6.4 | 0.00 | 0.05 | 0.05 | 69 | 1016.6 |
| 20260505205519 | 17 | 205 | 1.6 | 6.4 | 0.00 | 0.05 | 0.05 | 68 | 1016.6 |
| 20260505205021 | 17 | 22 | 1.6 | 6.4 | 0.00 | 0.05 | 0.05 | 68 | 1016.5 |
| 20260505204536 | 17 | 221 | 0.0 | 4.8 | 0.00 | 0.05 | 0.05 | 69 | 1016.6 |
| 20260505204015 | 17 | 92 | 0.0 | 4.8 | 0.00 | 0.05 | 0.05 | 70 | 1016.6 |
| 20260505203514 | 17 | 227 | 0.0 | 4.8 | 0.00 | 0.05 | 0.05 | 70 | 1016.7 |
| 20260505203041 | 17 | 0 | 0.0 | 1.6 | 0.00 | 0.05 | 0.05 | 70 | 1016.6 |
| 20260505202515 | 17 | 165 | 0.0 | 3.2 | 0.00 | 0.05 | 0.05 | 70 | 1016.6 |
| 20260505202016 | 17 | 207 | 0.0 | 4.8 | 0.00 | 0.05 | 0.05 | 69 | 1016.7 |
| 20260505201545 | 17 | 331 | 0.0 | 4.8 | 0.00 | 0.05 | 0.05 | 69 | 1016.7 |
| 20260505201014 | 17 | 0 | 0.0 | 1.6 | 0.00 | 0.05 | 0.05 | 69 | 1016.7 |
| 20260505200515 | 17 | 0 | 0.0 | 1.6 | 0.00 | 0.05 | 0.05 | 69 | 1016.8 |
| 20260505200033 | 17 | 0 | 0.0 | 1.6 | 0.00 | 0.05 | 0.05 | 68 | 1016.8 |
| 20260505195514 | 17 | 205 | 0.0 | 1.6 | 0.00 | 0.05 | 0.05 | 68 | 1016.8 |
| 20260505195012 | 17 | 0 | 0.0 | 1.6 | 0.00 | 0.05 | 0.05 | 69 | 1016.8 |
| 20260505194533 | 17 | 0 | 0.0 | 3.2 | 0.00 | 0.05 | 0.05 | 70 | 1016.8 |
| 20260505194017 | 17 | 92 | 0.0 | 3.2 | 0.00 | 0.05 | 0.05 | 70 | 1016.9 |
| 20260505193513 | 17 | 202 | 0.0 | 3.2 | 0.00 | 0.05 | 0.05 | 70 | 1016.8 |
| 20260505193044 | 17 | 0 | 0.0 | 6.4 | 0.00 | 0.05 | 0.05 | 72 | 1017.0 |
| 20260505192516 | 16 | 0 | 0.0 | 6.4 | 0.00 | 0.05 | 0.05 | 72 | 1017.0 |
| 20260505192015 | 17 | 192 | 0.0 | 6.4 | 0.00 | 0.05 | 0.05 | 70 | 1017.0 |
| 20260505191541 | 17 | 90 | 0.0 | 4.8 | 0.00 | 0.05 | 0.05 | 72 | 1016.9 |
| 20260505191018 | 17 | 201 | 0.0 | 3.2 | 0.00 | 0.05 | 0.05 | 70 | 1016.8 |
| 20260505190514 | 16 | 0 | 0.0 | 1.6 | 0.00 | 0.05 | 0.05 | 73 | 1016.9 |
| 20260505190036 | 16 | 0 | 0.0 | 1.6 | 0.00 | 0.05 | 0.05 | 74 | 1016.9 |
| 20260505185520 | 16 | 221 | 0.0 | 1.6 | 0.00 | 0.05 | 0.05 | 74 | 1016.7 |
| 20260505185013 | 16 | 212 | 0.0 | 3.2 | 0.00 | 0.05 | 0.05 | 75 | 1016.8 |
| 20260505184530 | 16 | 0 | 0.0 | 3.2 | 0.00 | 0.05 | 0.05 | 76 | 1016.8 |
| 20260505184014 | 16 | 219 | 0.0 | 1.6 | 0.00 | 0.05 | 0.05 | 76 | 1016.8 |
| 20260505183514 | 15 | 0 | 0.0 | 1.6 | 0.00 | 0.05 | 0.05 | 78 | 1016.8 |
| 20260505183045 | 15 | 0 | 0.0 | 4.8 | 0.00 | 0.05 | 0.05 | 79 | 1016.9 |
| 20260505182513 | 15 | 0 | 0.0 | 4.8 | 0.00 | 0.05 | 0.05 | 79 | 1017.0 |
| 20260505182016 | 15 | 211 | 0.0 | 1.6 | 0.00 | 0.05 | 0.05 | 80 | 1016.9 |
| 20260505181533 | 15 | 215 | 0.0 | 1.6 | 0.00 | 0.05 | 0.05 | 80 | 1017.0 |
| 20260505181021 | 15 | 0 | 0.0 | 1.6 | 0.00 | 0.05 | 0.05 | 81 | 1016.9 |
| 20260505180514 | 14 | 0 | 0.0 | 1.6 | 0.00 | 0.05 | 0.05 | 82 | 1016.8 |
| 20260505180036 | 14 | 219 | 0.0 | 1.6 | 0.00 | 0.05 | 0.05 | 81 | 1016.7 |
| 20260505175515 | 14 | 0 | 0.0 | 3.2 | 0.00 | 0.05 | 0.05 | 82 | 1016.7 |
| 20260505175020 | 14 | 0 | 0.0 | 3.2 | 0.00 | 0.05 | 0.05 | 82 | 1016.7 |
| 20260505174539 | 14 | 236 | 0.0 | 3.2 | 0.00 | 0.05 | 0.05 | 82 | 1016.7 |
| 20260505174013 | 14 | 192 | 0.0 | 3.2 | 0.00 | 0.05 | 0.05 | 83 | 1016.5 |
| 20260505173513 | 14 | 0 | 0.0 | 3.2 | 0.00 | 0.05 | 0.05 | 83 | 1016.4 |
| 20260505173038 | 14 | 196 | 0.0 | 1.6 | 0.00 | 0.05 | 0.05 | 82 | 1016.5 |
| 20260505172513 | 13 | 0 | 0.0 | 1.6 | 0.00 | 0.05 | 0.05 | 84 | 1016.5 |
| 20260505172025 | 13 | 0 | 0.0 | 1.6 | 0.00 | 0.05 | 0.05 | 84 | 1016.4 |
| 20260505171539 | 13 | 0 | 0.0 | 1.6 | 0.00 | 0.05 | 0.05 | 84 | 1016.4 |
| 20260505171012 | 13 | 0 | 0.0 | 1.6 | 0.00 | 0.05 | 0.05 | 85 | 1016.4 |
| 20260505170519 | 13 | 0 | 0.0 | 1.6 | 0.00 | 0.05 | 0.05 | 85 | 1016.5 |
| 20260505170034 | 13 | 0 | 0.0 | 1.6 | 0.00 | 0.05 | 0.05 | 85 | 1016.3 |
| 20260505165514 | 13 | 0 | 0.0 | 1.6 | 0.00 | 0.05 | 0.05 | 86 | 1016.4 |
| 20260505165014 | 13 | 0 | 0.0 | 1.6 | 0.00 | 0.05 | 0.05 | 85 | 1016.4 |
| 20260505164537 | 13 | 221 | 0.0 | 1.6 | 0.00 | 0.05 | 0.05 | 84 | 1016.4 |
| 20260505164013 | 13 | 0 | 0.0 | 1.6 | 0.00 | 0.05 | 0.05 | 84 | 1016.3 |
| 20260505163512 | 13 | 0 | 0.0 | 1.6 | 0.00 | 0.05 | 0.05 | 84 | 1016.3 |
| 20260505163031 | 13 | 0 | 0.0 | 1.6 | 0.00 | 0.05 | 0.05 | 84 | 1016.3 |
| 20260505162514 | 13 | 0 | 0.0 | 1.6 | 0.00 | 0.05 | 0.05 | 84 | 1016.2 |
| 20260505162016 | 13 | 0 | 0.0 | 3.2 | 0.00 | 0.05 | 0.05 | 85 | 1016.1 |
| 20260505161532 | 13 | 0 | 0.0 | 4.8 | 0.00 | 0.05 | 0.05 | 85 | 1016.1 |
| 20260505161013 | 13 | 0 | 0.0 | 4.8 | 0.00 | 0.05 | 0.05 | 85 | 1016.2 |
| 20260505160514 | 13 | 219 | 0.0 | 1.6 | 0.00 | 0.05 | 0.05 | 85 | 1016.1 |
| 20260505153034 | 12 | 0 | 0.0 | 1.6 | 0.00 | 0.05 | 0.05 | 85 | 1015.8 |
| 20260505152516 | 12 | 0 | 0.0 | 1.6 | 0.00 | 0.05 | 0.05 | 86 | 1015.9 |
| 20260505152020 | 12 | 0 | 0.0 | 1.6 | 0.00 | 0.05 | 0.05 | 86 | 1015.7 |
| 20260505151533 | 12 | 0 | 0.0 | 0.0 | 0.00 | 0.05 | 0.05 | 86 | 1015.7 |
| 20260505151015 | 12 | 0 | 0.0 | 0.0 | 0.00 | 0.05 | 0.05 | 86 | 1015.7 |
| 20260505150517 | 12 | 0 | 0.0 | 0.0 | 0.00 | 0.05 | 0.05 | 86 | 1015.7 |
| 20260505140522 | 11 | 0 | 0.0 | 0.0 | 0.00 | 0.05 | 0.05 | 88 | 1015.4 |
| 20260505125013 | 11 | 0 | 0.0 | 0.0 | 0.03 | 0.05 | 0.05 | 90 | 1015.5 |
| 20260505124533 | 11 | 0 | 0.0 | 0.0 | 0.03 | 0.05 | 0.05 | 89 | 1015.4 |
| 20260505124016 | 11 | 0 | 0.0 | 0.0 | 0.03 | 0.05 | 0.05 | 89 | 1015.5 |
| 20260505123516 | 11 | 0 | 0.0 | 0.0 | 0.03 | 0.05 | 0.05 | 89 | 1015.3 |
| 20260505123046 | 11 | 0 | 0.0 | 0.0 | 0.03 | 0.05 | 0.05 | 90 | 1015.4 |
| 20260505122515 | 11 | 0 | 0.0 | 0.0 | 0.03 | 0.05 | 0.05 | 90 | 1015.3 |
| 20260505122014 | 11 | 0 | 0.0 | 0.0 | 0.03 | 0.05 | 0.05 | 90 | 1015.3 |
| 20260505121534 | 11 | 0 | 0.0 | 1.6 | 0.03 | 0.05 | 0.05 | 90 | 1015.2 |
| 20260505121013 | 11 | 0 | 0.0 | 1.6 | 0.03 | 0.05 | 0.05 | 90 | 1015.2 |
| 20260505120513 | 11 | 0 | 0.0 | 1.6 | 0.03 | 0.05 | 0.05 | 89 | 1015.1 |
| 20260505120046 | 11 | 0 | 0.0 | 0.0 | 0.03 | 0.05 | 0.05 | 90 | 1015.2 |
| 20260505115513 | 11 | 0 | 0.0 | 0.0 | 0.00 | 0.03 | 0.03 | 89 | 1015.4 |
| 20260505115014 | 11 | 0 | 0.0 | 0.0 | 0.00 | 0.03 | 0.03 | 89 | 1015.4 |
| 20260505114545 | 11 | 0 | 0.0 | 0.0 | 0.00 | 0.03 | 0.03 | 89 | 1015.3 |
| 20260505114013 | 11 | 0 | 0.0 | 0.0 | 0.00 | 0.03 | 0.03 | 89 | 1015.4 |
| 20260505113513 | 11 | 0 | 0.0 | 0.0 | 0.00 | 0.03 | 0.03 | 89 | 1015.5 |
| 20260505113031 | 11 | 0 | 0.0 | 0.0 | 0.03 | 0.03 | 0.03 | 89 | 1015.6 |
| 20260505112512 | 11 | 0 | 0.0 | 0.0 | 0.03 | 0.03 | 0.03 | 88 | 1015.6 |
| 20260505112014 | 11 | 0 | 0.0 | 0.0 | 0.03 | 0.03 | 0.03 | 88 | 1015.5 |
| 20260505111533 | 11 | 0 | 0.0 | 0.0 | 0.03 | 0.03 | 0.03 | 88 | 1015.5 |
| 20260505111014 | 11 | 0 | 0.0 | 0.0 | 0.03 | 0.03 | 0.03 | 88 | 1015.5 |
| 20260505110515 | 11 | 0 | 0.0 | 0.0 | 0.03 | 0.03 | 0.03 | 88 | 1015.5 |
| 20260505102014 | 11 | 0 | 0.0 | 0.0 | 0.00 | 0.00 | 0.00 | 86 | 1015.3 |
| 20260505101530 | 11 | 0 | 0.0 | 0.0 | 0.00 | 0.00 | 0.00 | 85 | 1015.4 |
| 20260505101015 | 11 | 0 | 0.0 | 1.6 | 0.00 | 0.00 | 0.00 | 85 | 1015.5 |
| 20260505100512 | 11 | 0 | 0.0 | 1.6 | 0.00 | 0.00 | 0.00 | 84 | 1015.4 |
| 20260505100034 | 11 | 0 | 0.0 | 0.0 | 0.00 | 0.00 | 0.00 | 85 | 1015.5 |
| 20260505095514 | 11 | 0 | 0.0 | 1.6 | 0.00 | 0.00 | 0.00 | 85 | 1015.4 |
| 20260505095018 | 11 | 0 | 0.0 | 1.6 | 0.00 | 0.00 | 0.00 | 84 | 1015.5 |
| 20260505094534 | 11 | 0 | 0.0 | 0.0 | 0.00 | 0.00 | 0.00 | 84 | 1015.5 |
| 20260505094013 | 11 | 0 | 0.0 | 0.0 | 0.00 | 0.00 | 0.00 | 85 | 1015.7 |
| 20260505093514 | 11 | 0 | 0.0 | 0.0 | 0.00 | 0.00 | 0.00 | 85 | 1015.8 |
| 20260505093040 | 11 | 0 | 0.0 | 0.0 | 0.00 | 0.00 | 0.00 | 85 | 1015.8 |
| 20260505092511 | 11 | 0 | 0.0 | 0.0 | 0.00 | 0.00 | 0.00 | 85 | 1015.8 |
| 20260505092015 | 11 | 0 | 0.0 | 0.0 | 0.00 | 0.00 | 0.00 | 85 | 1015.8 |
| 20260505091540 | 11 | 0 | 0.0 | 0.0 | 0.00 | 0.00 | 0.00 | 85 | 1015.8 |
| 20260505091013 | 11 | 0 | 0.0 | 0.0 | 0.00 | 0.00 | 0.00 | 85 | 1015.9 |
| 20260505090514 | 11 | 0 | 0.0 | 0.0 | 0.00 | 0.00 | 0.00 | 85 | 1015.9 |
| 20260505090045 | 11 | 0 | 0.0 | 1.6 | 0.00 | 0.00 | 0.00 | 84 | 1016.1 |
| 20260505085515 | 11 | 0 | 0.0 | 1.6 | 0.00 | 0.00 | 0.00 | 83 | 1016.0 |
| 20260505085013 | 11 | 0 | 0.0 | 0.0 | 0.00 | 0.00 | 0.00 | 83 | 1016.1 |
| 20260505084532 | 11 | 0 | 0.0 | 0.0 | 0.00 | 0.00 | 0.00 | 82 | 1016.0 |
| 20260505084014 | 11 | 0 | 0.0 | 0.0 | 0.00 | 0.00 | 0.00 | 82 | 1016.1 |
| 20260505083516 | 11 | 0 | 0.0 | 0.0 | 0.00 | 0.00 | 0.00 | 83 | 1016.1 |
| 20260505083030 | 11 | 0 | 0.0 | 0.0 | 0.00 | 0.00 | 0.00 | 82 | 1016.1 |
| 20260505082512 | 11 | 0 | 0.0 | 0.0 | 0.00 | 0.00 | 0.00 | 82 | 1016.1 |
| 20260505082013 | 11 | 0 | 0.0 | 1.6 | 0.00 | 0.00 | 0.00 | 82 | 1016.1 |
| 20260505081542 | 11 | 0 | 0.0 | 3.2 | 0.00 | 0.00 | 0.00 | 83 | 1016.2 |
| 20260505081015 | 11 | 0 | 0.0 | 3.2 | 0.00 | 0.00 | 0.00 | 82 | 1016.3 |
| 20260505080513 | 11 | 236 | 0.0 | 1.6 | 0.00 | 0.00 | 0.00 | 82 | 1016.3 |
| 20260505080046 | 11 | 0 | 0.0 | 1.6 | 0.00 | 0.00 | 0.00 | 82 | 1016.3 |
| 20260505075513 | 11 | 0 | 0.0 | 1.6 | 0.00 | 0.00 | 0.00 | 81 | 1016.4 |
| 20260505075013 | 11 | 0 | 0.0 | 1.6 | 0.00 | 0.00 | 0.00 | 81 | 1016.4 |
| 20260505074530 | 12 | 0 | 0.0 | 1.6 | 0.00 | 0.00 | 0.00 | 80 | 1016.4 |
| 20260505074012 | 12 | 0 | 0.0 | 1.6 | 0.00 | 0.00 | 0.00 | 80 | 1016.5 |
| 20260505073514 | 12 | 0 | 0.0 | 1.6 | 0.00 | 0.00 | 0.00 | 79 | 1016.4 |
| 20260505073044 | 12 | 0 | 0.0 | 0.0 | 0.00 | 0.00 | 0.00 | 79 | 1016.5 |
| 20260505072512 | 12 | 0 | 0.0 | 1.6 | 0.00 | 0.00 | 0.00 | 78 | 1016.5 |
| 20260505072015 | 12 | 0 | 0.0 | 1.6 | 0.00 | 0.00 | 0.00 | 78 | 1016.4 |
| 20260505071532 | 12 | 0 | 0.0 | 1.6 | 0.00 | 0.00 | 0.00 | 78 | 1016.3 |
| 20260505071014 | 12 | 0 | 0.0 | 1.6 | 0.00 | 0.00 | 0.00 | 78 | 1016.3 |
| 20260505070511 | 12 | 0 | 0.0 | 0.0 | 0.00 | 0.00 | 0.00 | 78 | 1016.2 |
| 20260505070030 | 12 | 0 | 0.0 | 0.0 | 0.00 | 0.00 | 0.00 | 78 | 1016.2 |
| 20260505065515 | 12 | 0 | 0.0 | 0.0 | 0.00 | 0.00 | 0.00 | 77 | 1016.2 |
| 20260505065013 | 12 | 0 | 0.0 | 0.0 | 0.00 | 0.00 | 0.00 | 77 | 1016.1 |
| 20260505064531 | 12 | 0 | 0.0 | 0.0 | 0.00 | 0.00 | 0.00 | 77 | 1016.2 |
| 20260505064014 | 12 | 0 | 0.0 | 0.0 | 0.00 | 0.00 | 0.00 | 76 | 1016.1 |
| 20260505063518 | 12 | 0 | 0.0 | 0.0 | 0.00 | 0.00 | 0.00 | 76 | 1016.2 |
| 20260505063033 | 12 | 0 | 0.0 | 1.6 | 0.00 | 0.00 | 0.00 | 76 | 1016.1 |
| 20260505062512 | 12 | 0 | 0.0 | 1.6 | 0.00 | 0.00 | 0.00 | 75 | 1016.1 |
| 20260505062014 | 12 | 0 | 0.0 | 1.6 | 0.00 | 0.00 | 0.00 | 75 | 1015.9 |
| 20260505061531 | 12 | 0 | 0.0 | 0.0 | 0.00 | 0.00 | 0.00 | 76 | 1015.9 |
| 20260505061015 | 12 | 0 | 0.0 | 1.6 | 0.00 | 0.00 | 0.00 | 76 | 1015.9 |
| 20260505060514 | 12 | 0 | 0.0 | 1.6 | 0.00 | 0.00 | 0.00 | 77 | 1015.8 |
| 20260505060034 | 12 | 0 | 0.0 | 0.0 | 0.00 | 0.00 | 0.00 | 77 | 1015.8 |
| 20260505055518 | 12 | 0 | 0.0 | 4.8 | 0.00 | 0.00 | 0.00 | 77 | 1015.8 |
| 20260505055017 | 12 | 0 | 0.0 | 4.8 | 0.00 | 0.00 | 0.00 | 77 | 1015.8 |
| 20260505054530 | 12 | 0 | 0.0 | 3.2 | 0.00 | 0.00 | 0.00 | 77 | 1015.9 |
| 20260505054014 | 12 | 0 | 0.0 | 3.2 | 0.00 | 0.00 | 0.00 | 77 | 1016.0 |
| 20260505053513 | 12 | 0 | 0.0 | 1.6 | 0.00 | 0.00 | 0.00 | 77 | 1016.1 |
| 20260505053030 | 12 | 248 | 0.0 | 1.6 | 0.00 | 0.00 | 0.00 | 78 | 1016.1 |
| 20260505052520 | 12 | 0 | 0.0 | 1.6 | 0.00 | 0.00 | 0.00 | 79 | 1016.1 |
| 20260505052018 | 12 | 0 | 0.0 | 1.6 | 0.00 | 0.00 | 0.00 | 78 | 1016.2 |
| 20260505051536 | 12 | 0 | 0.0 | 3.2 | 0.00 | 0.00 | 0.00 | 78 | 1016.2 |
| 20260505051015 | 12 | 0 | 0.0 | 3.2 | 0.00 | 0.00 | 0.00 | 78 | 1016.2 |
| 20260505050516 | 13 | 219 | 0.0 | 1.6 | 0.00 | 0.00 | 0.00 | 79 | 1016.4 |
| 20260505050109 | 13 | 129 | 0.0 | 1.6 | 0.00 | 0.00 | 0.00 | 79 | 1016.6 |